Starlink 5883

operational
NORAD ID: 55956 Int'l Des: 2023-037 Owner: SPXS Country: US Constellation: starlink
LEOCIRCULAR

About Starlink 5883

Description loading...

Live Position

Loading 3D Globe...

Upcoming Passes

Altitude History

Altitude vs Time

uPlot chart will show altitude changes over time

Two-Line Element Set

1 55956U 23037AU 25258.56256503 -.00000382 00000-0 -24215-4 0 9992
2 55956 70.0005 345.9029 0003742 269.0269 91.0462 14.98326185138243
Epoch: Sep 15, 2025 • Age: 12 hours

Current Status

Altitude 575.9 km
Velocity 7.57 km/s
Sub-Earth Point 26.20°N, 138.23°E
Launch Date Mar 17, 2023
Age 2.4 years
Type internet

Technical Details

Classification Payload
Mass 305.00 kg
Dry Mass 290.00 kg
Total Mass 305.00 kg
Length 0.20 m
Diameter 2.80 m
Span 9.00 m
Shape Box + pan
Manufacturer SPXS
Bus Type Starlink
Phase Status In Orbit
Owner/State SPXS/US

Large Constellations

Loading constellations...